• In Latvia
  • List of Countries
  • For 7 days
  • Water Temperature
  • Satellite Maps
  • Weather Map
  • Weather Widgets
  • user-avatar
    Login

    Hourly Weather São Paulo

    Today, 17 December, Sunday

    Time Temperature Precipitation Wind Pressure Humidity
    00:00 +23°C° 0 mm 2 mps 697 mmHg 79%
    01:00 +23°C° 0 mm 2 mps 697 mmHg 79%
    02:00 +21°C° 0 mm 2 mps 696 mmHg 79%
    03:00 +22°C° 0 mm 1 mps 696 mmHg 80%
    04:00 +21°C° 0 mm 2 mps 696 mmHg 79%
    05:00 +21°C° 0 mm 2 mps 697 mmHg 78%
    06:00 +21°C° 0 mm 2 mps 697 mmHg 77%
    07:00 +25°C° 0 mm 3 mps 698 mmHg 69%
    08:00 +27°C° 0 mm 3 mps 698 mmHg 61%
    09:00 +29°C° 0 mm 4 mps 699 mmHg 53%
    10:00 +30°C° 0 mm 4 mps 699 mmHg 49%
    11:00 +33°C° 0 mm 4 mps 700 mmHg 46%
    12:00 +34°C° 0 mm 4 mps 700 mmHg 42%
    13:00 +34°C° 0 mm 3 mps 700 mmHg 43%
    14:00 +33°C° 0 mm 3 mps 699 mmHg 44%
    15:00 +32°C° 0 mm 2 mps 699 mmHg 45%
    16:00 +31°C° 0 mm 2 mps 698 mmHg 49%
    17:00 +30°C° 0 mm 2 mps 698 mmHg 53%
    18:00 +29°C° 0 mm 2 mps 698 mmHg 58%
    19:00 +28°C° 0.1 mm 1 mps 698 mmHg 62%
    20:00 +27°C° 0.1 mm 1 mps 699 mmHg 67%
    21:00 +26°C° 0.1 mm 1 mps 699 mmHg 72%
    22:00 +25°C° 0 mm 1 mps 699 mmHg 73%
    23:00 +25°C° 0 mm 2 mps 699 mmHg 74%

    Tomorrow, 18 December, Monday

    Time Temperature Precipitation Wind Pressure Humidity
    00:00 +24°C° 0 mm 2 mps 699 mmHg 75%
    01:00 +24°C° 0 mm 2 mps 698 mmHg 75%
    02:00 +24°C° 0 mm 2 mps 698 mmHg 75%
    03:00 +24°C° 0 mm 2 mps 697 mmHg 75%
    04:00 +24°C° 0 mm 2 mps 698 mmHg 76%
    05:00 +24°C° 0 mm 2 mps 698 mmHg 76%
    06:00 +23°C° 0 mm 2 mps 698 mmHg 76%
    07:00 +25°C° 0 mm 2 mps 699 mmHg 68%
    08:00 +28°C° 0 mm 2 mps 700 mmHg 60%
    09:00 +30°C° 0 mm 3 mps 701 mmHg 52%
    10:00 +30°C° 0.1 mm 3 mps 701 mmHg 52%
    11:00 +31°C° 0.1 mm 2 mps 701 mmHg 51%
    12:00 +31°C° 0.1 mm 2 mps 701 mmHg 50%
    13:00 +30°C° 0.8 mm 2 mps 700 mmHg 55%
    14:00 +30°C° 0.8 mm 2 mps 700 mmHg 60%
    15:00 +29°C° 0.8 mm 2 mps 700 mmHg 64%
    16:00 +28°C° 1.6 mm 2 mps 699 mmHg 69%
    17:00 +27°C° 1.6 mm 2 mps 699 mmHg 74%
    18:00 +26°C° 1.6 mm 2 mps 699 mmHg 79%
    19:00 +25°C° 0.4 mm 2 mps 699 mmHg 82%
    20:00 +24°C° 0.4 mm 2 mps 700 mmHg 84%
    21:00 +23°C° 0.4 mm 2 mps 700 mmHg 87%
    22:00 +23°C° 0.1 mm 2 mps 700 mmHg 88%
    23:00 +23°C° 0.1 mm 2 mps 700 mmHg 88%

    Day after tomorrow, 19 December, Tuesday

    Time Temperature Precipitation Wind Pressure Humidity
    00:00 +23°C° 0.1 mm 2 mps 700 mmHg 89%
    01:00 +23°C° 0.1 mm 2 mps 700 mmHg 90%
    02:00 +21°C° 0.1 mm 2 mps 700 mmHg 91%
    03:00 +22°C° 0.1 mm 1 mps 699 mmHg 91%
    04:00 +22°C° 0 mm 1 mps 699 mmHg 91%
    05:00 +22°C° 0 mm 1 mps 700 mmHg 90%
    06:00 +22°C° 0 mm 1 mps 700 mmHg 90%
    07:00 +24°C° 0 mm 1 mps 700 mmHg 82%
    08:00 +26°C° 0 mm 1 mps 701 mmHg 74%
    09:00 +27°C° 0 mm 1 mps 701 mmHg 67%
    10:00 +28°C° 0.3 mm 1 mps 701 mmHg 63%
    11:00 +30°C° 0.3 mm 1 mps 701 mmHg 60%
    12:00 +31°C° 0.3 mm 1 mps 701 mmHg 57%
    13:00 +30°C° 1.8 mm 1 mps 700 mmHg 60%
    14:00 +29°C° 1.8 mm 2 mps 699 mmHg 64%
    15:00 +29°C° 1.8 mm 2 mps 699 mmHg 67%
    16:00 +28°C° 2.8 mm 2 mps 699 mmHg 71%
    17:00 +27°C° 2.8 mm 2 mps 698 mmHg 75%
    18:00 +26°C° 2.8 mm 2 mps 698 mmHg 79%
    19:00 +25°C° 0.5 mm 2 mps 698 mmHg 82%
    20:00 +24°C° 0.5 mm 2 mps 699 mmHg 84%
    21:00 +23°C° 0.5 mm 2 mps 699 mmHg 87%
    22:00 +23°C° 0.2 mm 2 mps 699 mmHg 87%
    23:00 +23°C° 0.2 mm 2 mps 699 mmHg 88%

    20 December, Wednesday

    Time Temperature Precipitation Wind Pressure Humidity
    00:00 +23°C° 0.2 mm 1 mps 699 mmHg 88%
    01:00 +23°C° 0.1 mm 1 mps 698 mmHg 88%
    02:00 +23°C° 0.1 mm 1 mps 698 mmHg 88%
    03:00 +22°C° 0.1 mm 1 mps 697 mmHg 88%
    04:00 +22°C° 0.2 mm 1 mps 698 mmHg 89%
    05:00 +22°C° 0.2 mm 1 mps 698 mmHg 89%
    06:00 +22°C° 0.2 mm 1 mps 698 mmHg 89%
    07:00 +23°C° 0.4 mm 1 mps 699 mmHg 85%
    08:00 +24°C° 0.4 mm 1 mps 699 mmHg 80%
    09:00 +25°C° 0.4 mm 1 mps 699 mmHg 75%
    10:00 +26°C° 0.8 mm 2 mps 699 mmHg 72%
    11:00 +27°C° 0.8 mm 2 mps 699 mmHg 69%
    12:00 +28°C° 0.8 mm 2 mps 699 mmHg 66%
    13:00 +28°C° 1.6 mm 2 mps 698 mmHg 68%
    14:00 +27°C° 1.6 mm 1 mps 697 mmHg 71%
    15:00 +27°C° 1.6 mm 1 mps 697 mmHg 73%
    16:00 +26°C° 1.4 mm 1 mps 697 mmHg 76%
    17:00 +25°C° 1.4 mm 1 mps 697 mmHg 79%
    18:00 +24°C° 1.4 mm 2 mps 696 mmHg 83%
    19:00 +24°C° 1 mm 2 mps 697 mmHg 83%
    20:00 +23°C° 1 mm 2 mps 697 mmHg 84%
    21:00 +23°C° 1 mm 2 mps 697 mmHg 85%
    22:00 +23°C° 1.5 mm 2 mps 697 mmHg 86%
    23:00 +21°C° 1.5 mm 2 mps 697 mmHg 86%

    21 December, Thursday

    Time Temperature Precipitation Wind Pressure Humidity
    00:00 +21°C° 1.5 mm 2 mps 696 mmHg 87%
    01:00 +21°C° 0.7 mm 2 mps 696 mmHg 87%
    02:00 +21°C° 0.7 mm 2 mps 695 mmHg 88%
    03:00 +21°C° 0.7 mm 2 mps 695 mmHg 88%
    04:00 +21°C° 0.5 mm 2 mps 695 mmHg 88%
    05:00 +21°C° 0.5 mm 2 mps 695 mmHg 88%
    06:00 +21°C° 0.5 mm 2 mps 696 mmHg 88%
    07:00 +21°C° 0.4 mm 2 mps 696 mmHg 86%
    08:00 +21°C° 0.4 mm 3 mps 696 mmHg 84%
    09:00 +22°C° 0.4 mm 3 mps 696 mmHg 83%
    10:00 +22°C° 0.7 mm 3 mps 696 mmHg 83%
    11:00 +22°C° 0.7 mm 3 mps 696 mmHg 83%
    12:00 +22°C° 0.7 mm 4 mps 696 mmHg 83%
    13:00 +22°C° 1.3 mm 4 mps 696 mmHg 84%
    14:00 +22°C° 1.3 mm 3 mps 696 mmHg 85%
    15:00 +22°C° 1.3 mm 3 mps 695 mmHg 85%
    16:00 +22°C° 0.7 mm 3 mps 695 mmHg 86%
    17:00 +22°C° 0.7 mm 3 mps 695 mmHg 86%
    18:00 +21°C° 0.7 mm 3 mps 695 mmHg 87%
    19:00 +21°C° 0.8 mm 3 mps 695 mmHg 87%
    20:00 +21°C° 0.8 mm 3 mps 696 mmHg 88%
    21:00 +21°C° 0.8 mm 3 mps 696 mmHg 88%
    22:00 +21°C° 0.8 mm 3 mps 696 mmHg 88%
    23:00 +21°C° 0.8 mm 3 mps 696 mmHg 88%

    22 December, Friday

    Time Temperature Precipitation Wind Pressure Humidity
    00:00 +20°C° 0.8 mm 3 mps 696 mmHg 88%
    01:00 +20°C° 0.3 mm 3 mps 695 mmHg 88%
    02:00 +20°C° 0.3 mm 3 mps 695 mmHg 88%
    03:00 +20°C° 0.3 mm 3 mps 695 mmHg 88%
    04:00 +20°C° 0.3 mm 3 mps 695 mmHg 89%
    05:00 +20°C° 0.3 mm 3 mps 695 mmHg 89%
    06:00 +20°C° 0.3 mm 3 mps 695 mmHg 89%
    07:00 +21°C° 0.1 mm 3 mps 696 mmHg 87%
    08:00 +21°C° 0.1 mm 3 mps 696 mmHg 86%
    09:00 +21°C° 0.1 mm 3 mps 696 mmHg 84%
    10:00 +22°C° 0 mm 3 mps 696 mmHg 80%
    11:00 +24°C° 0 mm 3 mps 696 mmHg 77%
    12:00 +25°C° 0 mm 3 mps 696 mmHg 73%
    13:00 +25°C° 0.3 mm 3 mps 696 mmHg 73%
    14:00 +25°C° 0.3 mm 3 mps 696 mmHg 74%
    15:00 +25°C° 0.3 mm 3 mps 695 mmHg 75%
    16:00 +25°C° 0.2 mm 3 mps 695 mmHg 76%
    17:00 +24°C° 0.2 mm 3 mps 695 mmHg 77%
    18:00 +24°C° 0.2 mm 3 mps 695 mmHg 78%
    19:00 +22°C° 0 mm 3 mps 695 mmHg 81%
    20:00 +23°C° 0 mm 2 mps 695 mmHg 83%
    21:00 +21°C° 0 mm 2 mps 696 mmHg 85%
    22:00 +21°C° 0 mm 2 mps 696 mmHg 85%
    23:00 +21°C° 0 mm 2 mps 696 mmHg 85%
    Show more